Location: Ingoldesthorpe
(52.8667°N, 0.5167°E)
Time: 21:05:25
(UTC+00:00)

Meteor 2-8 Rocket - Pass Details

Date: 19 May 2025
Orbit: 937 x 957 km, 82.5° (Epoch: 21 June)

Event Time Altitude Azimuth Distance (km) Brightness Sun altitude
Rises 23:12:26 0° 348° (NNW) 3,651 9.3 -16.6°
Reaches altitude 10° 23:14:56 10° 350° (N) 2,702 8.2 -16.6°
Maximum altitude 23:21:09 84° 78° (ENE) 971 4.5 -16.8°
Enters shadow 23:24:50 26° 166° (SSE) 1,783 5.3 -16.9°
